FW8060 Weather Reports


Display with metric or nautical units.
time (UTC)temp
F
wind
direction
speed
MPH
gust
MPH
rain 1hr
in
rain 24hr
in
rain mn
in
humidity
%
barometer
mb
20260902204451 66 194 6.0 20.0 0.00 0.00 0.00 72 1019.9
20260902203449 66 209 3.0 8.0 0.00 0.00 0.00 73 1020.0
20260902203312 66 162 2.0 6.0 0.00 0.00 0.00 73 1019.9
20260902201449 66 194 3.0 9.0 0.00 0.00 0.00 72 1019.7
20260902200448 66 189 3.0 7.0 0.00 0.00 0.00 71 1019.7
20260902195446 66 216 3.0 8.0 0.00 0.00 0.00 71 1019.7
20260902194448 66 167 3.0 6.0 0.00 0.00 0.00 71 1019.8
20260902193442 66 182 4.0 7.0 0.00 0.00 0.00 71 1019.9
20260902192443 66 176 2.0 7.0 0.00 0.00 0.00 72 1019.9
20260902192333 66 204 2.0 6.0 0.00 0.00 0.00 71 1019.9
20260902190440 66 186 3.0 6.0 0.00 0.00 0.00 70 1019.8
20260902185448 67 169 3.0 8.0 0.00 0.00 0.00 69 1019.9
20260902184453 67 167 2.0 5.0 0.00 0.00 0.00 68 1019.8
20260902183814 67 168 2.0 8.0 0.00 0.00 0.00 69 1019.9
20260902182808 68 217 2.0 6.0 0.00 0.00 0.00 67 1019.9
20260902181808 68 213 3.0 8.0 0.00 0.00 0.00 66 1019.9
20260902180811 68 211 5.0 13.0 0.00 0.00 0.00 65 1019.8
20260902175804 69 247 4.0 10.0 0.00 0.00 0.00 67 1019.9
20260902174804 69 225 4.0 9.0 0.00 0.00 0.00 67 1019.9
20260902174701 69 248 4.0 8.0 0.00 0.00 0.00 66 1020.0
20260902172804 69 198 5.0 10.0 0.00 0.00 0.00 66 1020.0
20260902171805 70 228 4.0 10.0 0.00 0.00 0.00 66 1019.8
20260902170808 70 219 6.0 12.0 0.00 0.00 0.00 67 1019.8
20260902165814 70 296 4.0 12.0 0.00 0.00 0.00 68 1019.9
20260902164813 70 267 4.0 9.0 0.00 0.00 0.00 69 1019.9
20260902163808 70 184 4.0 10.0 0.00 0.00 0.00 69 1020.0
20260902162807 70 196 5.0 11.0 0.00 0.00 0.00 69 1020.0
20260902161806 70 234 4.0 12.0 0.00 0.00 0.00 69 1020.0
20260902160804 71 244 3.0 9.0 0.00 0.00 0.00 69 1020.1
20260902155759 71 218 4.0 10.0 0.00 0.00 0.00 67 1020.2
20260902154806 71 250 4.0 8.0 0.00 0.00 0.00 66 1020.2
20260902153800 71 261 5.0 11.0 0.00 0.00 0.00 65 1020.3
20260902152759 71 253 3.0 12.0 0.00 0.00 0.00 68 1020.3
20260902151759 72 261 3.0 8.0 0.00 0.00 0.00 67 1020.3
20260902150802 71 236 4.0 9.0 0.00 0.00 0.00 69 1020.3
20260902145758 71 238 5.0 13.0 0.00 0.00 0.00 69 1020.5
20260902144800 71 277 3.0 8.0 0.00 0.00 0.00 71 1020.5
20260902143758 70 237 3.0 8.0 0.00 0.00 0.00 70 1020.5
20260902143652 70 244 4.0 9.0 0.00 0.00 0.00 70 1020.6
20260902142024 71 248 3.0 10.0 0.00 0.00 0.00 67 1020.6
20260902141800 71 294 5.0 12.0 0.00 0.00 0.00 67 1020.6
20260902140758 71 305 5.0 12.0 0.00 0.00 0.00 66 1020.6
20260902134758 71 202 4.0 10.0 0.00 0.00 0.00 66 1020.6
20260902133756 72 262 4.0 10.0 0.00 0.00 0.00 64 1020.5
20260902132753 72 234 4.0 11.0 0.00 0.00 0.00 65 1020.6
20260902132227 71 257 4.0 10.0 0.00 0.00 0.00 68 1020.8
20260902131924 70 140 4.0 10.0 0.00 0.00 0.00 69 1020.8
20260902131756 71 123 4.0 9.0 0.00 0.00 0.00 69 1020.6
20260902125658 71 239 2.0 7.0 0.00 0.00 0.00 69 1020.9
20260902124224 70 200 4.0 10.0 0.00 0.00 0.00 71 1020.9
20260902123725 70 252 4.0 10.0 0.00 0.00 0.00 69 1021.0
20260902121752 71 155 4.0 11.0 0.00 0.00 0.00 69 1020.9
20260902120748 71 233 4.0 10.0 0.00 0.00 0.00 69 1020.9
20260902115746 70 159 5.0 13.0 0.00 0.00 0.00 72 1020.9
20260902114751 69 227 5.0 11.0 0.00 0.00 0.00 73 1021.1
20260902113746 69 261 4.0 11.0 0.00 0.00 0.00 73 1021.2
20260902112745 69 244 4.0 14.0 0.00 0.00 0.00 73 1021.3
20260902111746 69 263 5.0 12.0 0.00 0.00 0.00 73 1021.4
20260902110744 68 140 4.0 12.0 0.00 0.00 0.00 75 1021.5
20260902105748 68 236 6.0 12.0 0.00 0.00 0.00 76 1021.6
20260902104743 68 275 4.0 10.0 0.00 0.00 0.00 77 1021.6
20260902103747 68 220 5.0 11.0 0.00 0.00 0.00 77 1021.7
20260902102745 68 223 4.0 14.0 0.00 0.00 0.00 75 1021.6
20260902101747 68 273 4.0 10.0 0.00 0.00 0.00 76 1021.3
20260902101641 68 249 5.0 13.0 0.00 0.00 0.00 78 1021.4
20260902095745 68 266 4.0 12.0 0.00 0.00 0.00 76 1021.6
20260902094748 68 229 4.0 8.0 0.00 0.00 0.00 77 1021.5
20260902093749 68 208 4.0 10.0 0.00 0.00 0.00 78 1021.5
20260902092750 68 236 4.0 9.0 0.00 0.00 0.00 78 1021.4
20260902091744 68 279 4.0 11.0 0.00 0.00 0.00 77 1021.4
20260902090744 68 185 3.0 9.0 0.00 0.00 0.00 79 1021.1
20260902085743 67 209 4.0 9.0 0.00 0.00 0.00 80 1021.0
20260902084741 67 271 3.0 8.0 0.00 0.00 0.00 81 1021.1
20260902083742 66 260 4.0 9.0 0.00 0.00 0.00 83 1021.1
20260902083244 65 229 4.0 11.0 0.00 0.00 0.00 84 1020.9
20260902081744 64 209 4.0 9.0 0.00 0.00 0.00 86 1020.9
20260902080742 64 257 3.0 8.0 0.00 0.00 0.00 87 1021.0
20260902080644 63 177 3.0 8.0 0.00 0.00 0.00 88 1020.8
20260902074742 62 158 3.0 6.0 0.00 0.00 0.00 90 1020.6
20260902073742 61 183 3.0 7.0 0.00 0.00 0.00 90 1020.5
20260902073650 61 227 3.0 7.0 0.00 0.00 0.00 91 1020.4
20260902071856 59 169 3.0 9.0 0.00 0.00 0.00 92 1020.4
20260902071751 60 177 3.0 8.0 0.00 0.00 0.00 92 1020.4
20260902070722 59 187 3.0 9.0 0.00 0.00 0.00 93 1020.4
20260902064742 58 219 4.0 9.0 0.00 0.00 0.00 93 1020.6
20260902063743 58 202 4.0 8.0 0.00 0.00 0.00 93 1020.5
20260902062745 57 184 3.0 8.0 0.00 0.00 0.00 93 1020.4
20260902061742 57 174 3.0 7.0 0.00 0.00 0.00 93 1020.3
20260902060740 57 199 3.0 8.0 0.00 0.00 0.00 93 1020.3
20260902055741 57 173 3.0 7.0 0.00 0.00 0.00 93 1020.3
20260902054735 57 187 3.0 7.0 0.00 0.00 0.00 94 1020.1
20260902053736 56 159 4.0 8.0 0.00 0.00 0.00 94 1020.1
20260902052738 56 175 4.0 9.0 0.00 0.00 0.00 94 1020.1
20260902051736 56 176 4.0 8.0 0.00 0.00 0.00 94 1020.2
20260902050735 56 198 3.0 7.0 0.00 0.00 0.00 94 1020.1
20260902045731 56 238 3.0 7.0 0.00 0.00 0.00 94 1020.1
20260902044736 56 213 3.0 7.0 0.00 0.00 0.00 93 1020.0
20260902043736 56 207 3.0 8.0 0.00 0.00 0.00 93 1019.9
20260902042736 56 189 3.0 8.0 0.00 0.00 0.00 93 1019.9
20260902042715 56 176 3.0 7.0 0.00 0.00 0.00 93 1020.0
20260902040732 56 173 4.0 10.0 0.00 0.00 0.00 93 1019.8
20260902035732 56 194 3.0 8.0 0.00 0.00 0.00 93 1020.0
20260902034728 56 175 3.0 6.0 0.00 0.00 0.00 92 1020.0
20260902034621 57 188 2.0 8.0 0.00 0.00 0.00 92 1019.9
20260902033822 56 167 2.0 6.0 0.00 0.00 0.00 92 1019.9
20260902032756 56 200 2.0 6.0 0.00 0.00 0.00 92 1019.9
20260902031730 57 218 2.0 6.0 0.00 0.00 0.00 92 1020.0
20260902030730 57 174 2.0 6.0 0.00 0.00 0.00 92 1020.1
20260902024735 57 213 3.0 7.0 0.00 0.00 0.00 91 1020.1
20260902023735 57 180 3.0 6.0 0.00 0.00 0.00 91 1020.2
20260902022730 57 189 3.0 6.0 0.00 0.00 0.00 91 1020.3
20260902022234 57 196 3.0 7.0 0.00 0.00 0.00 90 1020.3
20260902020723 57 173 3.0 8.0 0.00 0.00 0.00 90 1020.4
20260902015719 57 178 3.0 7.0 0.00 0.00 0.00 90 1020.4
20260902014716 57 186 2.0 6.0 0.00 0.00 0.00 89 1020.3
20260902013718 57 210 3.0 6.0 0.00 0.00 0.00 89 1020.4
20260902012716 58 190 2.0 8.0 0.00 0.00 0.00 89 1020.4
20260902011714 58 200 3.0 8.0 0.00 0.00 0.00 88 1020.4
20260902010718 58 207 3.0 7.0 0.00 0.00 0.00 88 1020.5
20260902005717 58 221 3.0 6.0 0.00 0.00 0.00 88 1020.5
20260902004713 58 159 2.0 5.0 0.00 0.00 0.00 87 1020.4
20260902003714 58 178 2.0 5.0 0.00 0.00 0.00 87 1020.6
20260902003620 58 169 1.0 4.0 0.00 0.00 0.00 87 1020.6
20260902001715 58 169 1.0 4.0 0.00 0.00 0.00 87 1020.5
20260902000716 58 148 1.0 5.0 0.00 0.00 0.00 86 1020.7
20260901235714 58 176 2.0 7.0 0.00 0.00 0.00 86 1020.6
20260901234713 58 179 3.0 6.0 0.00 0.00 0.00 85 1020.9
20260901233711 59 200 2.0 4.0 0.00 0.00 0.00 85 1020.8
20260901233636 59 167 3.0 6.0 0.00 0.00 0.00 85 1020.7
20260901231712 59 186 2.0 6.0 0.00 0.00 0.00 85 1020.9
20260901230712 59 175 3.0 6.0 0.00 0.00 0.00 85 1021.0
20260901225717 58 185 2.0 6.0 0.00 0.00 0.00 85 1021.0
20260901224719 58 193 1.0 4.0 0.00 0.00 0.00 84 1021.0
20260901223714 58 193 2.0 4.0 0.00 0.00 0.00 84 1021.0
20260901222709 58 193 2.0 3.0 0.00 0.00 0.00 83 1021.1
20260901221715 59 193 2.0 4.0 0.00 0.00 0.00 83 1021.0
20260901220710 59 226 2.0 5.0 0.00 0.00 0.00 83 1021.2
20260901215709 59 206 2.0 5.0 0.00 0.00 0.00 83 1021.2
20260901214709 59 184 1.0 4.0 0.00 0.00 0.00 82 1021.3
20260901214557 60 184 1.0 5.0 0.00 0.00 0.00 82 1021.2
20260901212717 60 211 2.0 5.0 0.00 0.00 0.00 81 1021.3
20260901211715 60 208 1.0 4.0 0.00 0.00 0.00 80 1021.4
20260901210705 60 175 1.0 4.0 0.00 0.00 0.00 80 1021.2
20260901205703 60 187 1.0 7.0 0.00 0.00 0.00 80 1021.3
20260901204704 61 196 1.0 6.0 0.00 0.00 0.00 80 1021.4